This demonstration page uses our WeatherBlox Daily Observations layout. Learn more.

Left ArrowRight Arrow

34.02893, -84.19858

Hourly Observations for September 25, 2022

Temp ( °F °C ) Dew Point ( °F °C ) Humidity (%) Winds ( mph kmh ) Pressure ( in mb ) Visibility ( mi km ) Precip ( " mm )
12:53 am 00:53 Clear 58 14.4 51 10.6 78 78 Calm 30.00 1016 10 16 0.00 0.00
1:53 am 01:53 Clear 58 14.4 52 11.1 81 81 Calm 30.00 1016 10 16 0.00 0.00
2:53 am 02:53 Clear 57 13.9 53 11.7 87 87 Calm 29.99 1016 10 16 0.00 0.00
3:53 am 03:53 Clear 56 13.3 53 11.7 90 90 Calm 29.97 1015 10 16 0.00 0.00
4:53 am 04:53 Partly Cloudy 57 13.9 54 12.2 89 89 Calm 29.97 1015 10 16 0.00 0.00
5:53 am 05:53 Mostly Cloudy 60 15.6 55 12.8 83 83 Calm 29.98 1015 10 16 0.00 0.00
6:53 am 06:53 Mostly Cloudy 62 16.7 52 11.1 70 70 Calm 29.98 1015 10 16 0.00 0.00
7:53 am 07:53 Sunny 60 15.6 55 12.8 83 83 Calm 29.98 1015 10 16 0.00 0.00
8:53 am 08:53 Mostly Cloudy 63 17.2 55 12.8 75 75 Calm 29.98 1015 10 16 0.00 0.00
9:53 am 09:53 Cloudy with Light Rain 63 17.2 58 14.4 84 84 WNW 6 9 29.98 1015 10 16 0.01 0.13
10:53 am 10:53 Mostly Cloudy 67 19.4 56 13.3 68 68 W 5 7 29.98 1015 10 16 0.01 0.13
11:53 am 11:53 Cloudy 66 18.9 58 14.4 75 75 SW 5 7 29.98 1015 10 16 0.01 0.13
12:53 pm 12:53 Mostly Cloudy 67 19.4 58 14.4 73 73 SW 6 9 29.97 1015 10 16 0.01 0.25
1:53 pm 13:53 Mostly Cloudy 70 21.1 60 15.6 71 71 SSW 8 13 29.95 1014 10 16 0.00 0.00
2:53 pm 14:53 Sunny 73 22.8 61 16.1 66 66 WSW 6 9 29.91 1013 10 16 0.00 0.00
3:53 pm 15:53 Sunny 76 24.4 63 17.2 64 64 SSW 10 17 29.88 1012 10 16 0.00 0.00
4:53 pm 16:53 Sunny 79 26.1 64 17.8 60 60 W 8 13 29.86 1011 10 16 0.00 0.00
5:53 pm 17:53 Sunny 78 25.6 64 17.8 62 62 VRB 7 11 29.85 1011 10 16 0.00 0.00
6:53 pm 18:53 Mostly Cloudy 76 24.4 65 18.3 69 69 WSW 6 9 29.85 1011 10 16 0.00 0.00
7:53 pm 19:53 Cloudy 74 23.3 63 17.2 69 69 W 6 9 29.86 1011 10 16 0.00 0.00
8:53 pm 20:53 Clear 70 21.1 62 16.7 76 76 W 5 7 29.87 1012 10 16 0.00 0.00
9:53 pm 21:53 Clear 67 19.4 62 16.7 84 84 WSW 3 6 29.89 1012 10 16 0.00 0.00
10:53 pm 22:53 Clear 68 20 63 17.2 84 84 WSW 6 9 29.89 1012 10 16 0.00 0.00
11:53 pm 23:53 Clear 67 19.4 63 17.2 87 87 WSW 7 11 29.90 1013 10 16 0.00 0.00

Powered by AerisWeather